N737RM MWCR-TNCM

Flight info

Callsign N737RM
Flight time N/A
Altitude 39000
Route NALRO2 NALRO UG633 SIA UT6 KEBET UL577 ANTEX B520 JUICE
Aircraft B738/M-SDE2E3FGHIRWXY/LB1

Departure

Time 2026-04-22 14:59
Airport Owen Roberts International Airport (MWCR)

Arrival

Time N/A
Airport Princess Juliana International Airport (TNCM)
Time Latitude Longitude Altitude Speed Heading
2026-04-22 14:40 19.29495 -81.35877 14 ft 0 kts 347°
2026-04-22 14:55 19.29496 -81.35878 14 ft 1 kts 339°
2026-04-22 14:55 19.29497 -81.35883 14 ft 1 kts 281°
2026-04-22 14:55 19.29490 -81.35887 14 ft 1 kts 187°
2026-04-22 14:55 19.29470 -81.35880 14 ft 0 kts 162°
2026-04-22 14:56 19.29467 -81.35877 14 ft 3 kts 139°
2026-04-22 14:56 19.29428 -81.35841 14 ft 12 kts 138°
2026-04-22 14:56 19.29345 -81.35804 13 ft 14 kts 169°
2026-04-22 14:56 19.29262 -81.35846 14 ft 15 kts 249°
2026-04-22 14:57 19.29233 -81.35962 14 ft 18 kts 257°
2026-04-22 14:57 19.29201 -81.36108 15 ft 23 kts 257°
2026-04-22 14:57 19.29159 -81.36293 15 ft 28 kts 256°
2026-04-22 14:57 19.29105 -81.36511 14 ft 32 kts 255°
2026-04-22 14:58 19.29088 -81.36707 14 ft 10 kts 275°
2026-04-22 14:58 19.29069 -81.36745 16 ft 6 kts 159°
2026-04-22 14:58 19.29060 -81.36698 14 ft 10 kts 77°
2026-04-22 14:58 19.29157 -81.36288 15 ft 105 kts 75°
2026-04-22 14:59 19.29381 -81.35277 240 ft 165 kts 75°
2026-04-22 14:59 19.29645 -81.33979 977 ft 188 kts 76°
2026-04-22 14:59 19.29905 -81.32730 2549 ft 158 kts 76°
2026-04-22 14:59 19.30169 -81.31600 3616 ft 164 kts 83°
2026-04-22 15:00 19.29843 -81.30350 4037 ft 201 kts 123°
2026-04-22 15:00 19.28847 -81.29124 4360 ft 238 kts 127°
2026-04-22 15:00 19.27706 -81.27725 4917 ft 259 kts 127°
2026-04-22 15:00 19.26495 -81.26255 5724 ft 271 kts 129°
2026-04-22 15:01 19.25251 -81.24749 6668 ft 273 kts 130°
2026-04-22 15:01 19.23984 -81.23219 7497 ft 279 kts 129°
2026-04-22 15:01 19.22699 -81.21664 8369 ft 283 kts 129°
2026-04-22 15:01 19.21406 -81.20098 9219 ft 289 kts 130°
2026-04-22 15:02 19.20082 -81.18477 10067 ft 294 kts 126°
2026-04-22 15:02 19.19203 -81.16501 10602 ft 308 kts 102°
2026-04-22 15:02 19.18818 -81.14175 10809 ft 334 kts 97°
2026-04-22 15:02 19.18490 -81.11650 10990 ft 358 kts 96°
2026-04-22 15:03 19.18135 -81.08958 11145 ft 380 kts 97°
2026-04-22 15:03 19.17733 -81.06124 11338 ft 397 kts 98°
2026-04-22 15:03 19.17288 -81.03209 11826 ft 403 kts 98°
2026-04-22 15:03 19.16816 -81.00269 12381 ft 407 kts 99°
2026-04-22 15:04 19.16494 -80.98314 12754 ft 410 kts 99°
2026-04-22 15:04 19.15992 -80.95330 13294 ft 413 kts 98°
2026-04-22 15:04 19.15481 -80.92326 13815 ft 418 kts 99°
2026-04-22 15:04 19.14961 -80.89286 14261 ft 422 kts 98°
2026-04-22 15:05 19.14435 -80.86214 14671 ft 426 kts 99°
2026-04-22 15:05 19.13903 -80.83113 15043 ft 432 kts 99°
2026-04-22 15:05 19.13363 -80.79971 15406 ft 436 kts 99°
2026-04-22 15:05 19.12820 -80.76806 15854 ft 440 kts 99°
2026-04-22 15:06 19.12271 -80.73612 16298 ft 442 kts 99°
2026-04-22 15:06 19.11718 -80.70399 16618 ft 449 kts 99°
2026-04-22 15:06 19.11159 -80.67151 17095 ft 449 kts 99°
2026-04-22 15:06 19.10599 -80.63904 17613 ft 450 kts 100°
2026-04-22 15:07 19.10042 -80.60677 17949 ft 455 kts 99°
2026-04-22 15:07 19.09462 -80.57317 18249 ft 460 kts 99°
2026-04-22 15:07 19.08893 -80.54023 18642 ft 461 kts 99°
2026-04-22 15:07 19.08313 -80.50672 18922 ft 466 kts 99°
2026-04-22 15:08 19.07726 -80.47286 19231 ft 468 kts 99°
2026-04-22 15:08 19.07137 -80.43889 19519 ft 471 kts 99°
2026-04-22 15:08 19.06543 -80.40465 19747 ft 476 kts 100°
2026-04-22 15:08 19.05942 -80.37011 20065 ft 477 kts 100°
2026-04-22 15:09 19.05342 -80.33562 20431 ft 478 kts 100°
2026-04-22 15:09 19.04738 -80.30091 20635 ft 482 kts 100°
2026-04-22 15:09 19.04128 -80.26592 20905 ft 484 kts 100°
2026-04-22 15:09 19.03515 -80.23084 21274 ft 484 kts 100°
2026-04-22 15:10 19.02906 -80.19619 21491 ft 488 kts 101°
2026-04-22 15:10 19.02193 -80.16099 21681 ft 491 kts 103°
2026-04-22 15:10 19.01390 -80.12580 21963 ft 492 kts 104°
2026-04-22 15:10 19.00557 -80.09068 22239 ft 494 kts 104°
2026-04-22 15:11 18.99719 -80.05535 22464 ft 496 kts 104°
2026-04-22 15:11 18.98889 -80.01991 22694 ft 498 kts 104°
2026-04-22 15:11 18.98065 -79.98421 22906 ft 500 kts 103°
2026-04-22 15:11 18.97247 -79.94833 23146 ft 502 kts 103°
2026-04-22 15:12 18.96435 -79.91257 23523 ft 500 kts 103°
2026-04-22 15:12 18.95625 -79.87680 23813 ft 500 kts 103°
2026-04-22 15:12 18.94813 -79.84097 24014 ft 502 kts 104°
2026-04-22 15:12 18.94018 -79.80593 24674 ft 491 kts 104°
2026-04-22 15:13 18.93229 -79.77124 25391 ft 482 kts 104°
2026-04-22 15:13 18.92448 -79.73699 25950 ft 478 kts 104°
2026-04-22 15:13 18.91665 -79.70269 26283 ft 481 kts 104°
2026-04-22 15:13 18.90878 -79.66824 26616 ft 484 kts 104°
2026-04-22 15:14 18.90088 -79.63367 27007 ft 484 kts 104°
2026-04-22 15:14 18.89295 -79.59900 27457 ft 484 kts 104°
2026-04-22 15:14 18.88503 -79.56439 27907 ft 484 kts 104°
2026-04-22 15:14 18.87711 -79.52980 28322 ft 485 kts 104°
2026-04-22 15:15 18.86916 -79.49517 28748 ft 485 kts 104°
2026-04-22 15:15 18.86130 -79.46095 29186 ft 486 kts 104°
2026-04-22 15:15 18.85332 -79.42625 29643 ft 486 kts 104°
2026-04-22 15:15 18.84534 -79.39158 30101 ft 487 kts 104°
2026-04-22 15:16 18.83735 -79.35686 30475 ft 487 kts 105°
2026-04-22 15:16 18.82936 -79.32221 30921 ft 485 kts 105°
2026-04-22 15:16 18.82140 -79.28767 31392 ft 483 kts 105°
2026-04-22 15:16 18.81345 -79.25319 31839 ft 482 kts 105°
2026-04-22 15:17 18.80552 -79.21887 32222 ft 481 kts 105°
2026-04-22 15:17 18.79763 -79.18473 32779 ft 476 kts 105°